Regional Weather Roundup
Issued by NWS

Home | Current Version | Previous Version | Graphics & Text | Print | Product List | Glossary On
Versions: 1 2 3 4 5 6 7 8 9 10 11 12 13 14 15 16 17 18 19 20 21 22 23 24 25 26 27 28 29 30 31 32 33 34 35 36 37 38 39 40 41 42 43 44 45 46 47 48 49 50
000
ASUS43 KMPX 222001
RWRMN
WEATHER ROUNDUP FOR MINNESOTA
NATIONAL WEATHER SERVICE TWIN CITIES/CHANHASSEN MN
300 PM CDT TUE MAY 22 2018


NOTE: "FAIR" INDICATES FEW OR NO CLOUDS BELOW 12,000 FEET WITH NO
SIGNIFICANT WEATHER AND/OR OBSTRUCTIONS TO VISIBILITY. N/A MEANS
CURRENT SKY AND/OR WEATHER CONDITIONS ARE NOT AVAILABLE.

MNZ060>063-068>070-222100-
   Twin Cities Metro

CITY           SKY/WX    TMP DP  RH WIND       PRES   REMARKS
TWIN CITIES    CLOUDY    73  58  59 CALM      30.04S
ST PAUL        CLOUDY    72  57  59 S5        30.04F
CRYSTAL        CLOUDY    72  55  55 VRB6      30.02F
BLAINE         PTSUNNY   73  57  56 VRB3      30.04S
LAKEVILLE      PTSUNNY   72  57  60 W3        30.03F
EDEN PRAIRIE   FAIR      74  57  55 S8        30.03S
SOUTH ST PAUL  FAIR      72  55  56 CALM      30.03F
LAKE ELMO      FAIR      72  59  64 S6        30.05F
$$
MNZ001>005-007-008-013>017-022>024-027-028-222100-
   Northwest Minnesota

CITY           SKY/WX    TMP DP  RH WIND       PRES   REMARKS
BEMIDJI        CLOUDY    73  54  51 SE5       30.01F
HALLOCK        FAIR      79  54  41 SW7       29.95S
ROSEAU         FAIR      77  55  47 CALM      29.98S
WARROAD        FAIR      70  57  64 NE12      29.99S
THIEF RVR FALL PTSUNNY   75  54  47 S10       29.99F
CROOKSTON      FAIR      75  55  50 S3        29.97F
FOSSTON        FAIR      75  52  43 S6        30.00F
DETROIT LAKES  FAIR      72  55  56 SW7       30.02F
MOORHEAD       FAIR      79  54  41 SE5       29.97F
PARK RAPIDS    FAIR      71  55  56 E5        30.01F
MAHNOMEN       FAIR      73  56  56 S5        30.00F
$$
MNZ006-009>011-018-025>026-222100-
   North Central Minnesota

CITY           SKY/WX    TMP DP  RH WIND       PRES   REMARKS
BAUDETTE       FAIR      77  45  32 S7        29.99F
FLAG ISLAND    FAIR      70  46  43 SE7       29.98F
INTL FALLS     FAIR      77  41  27 SW6       29.99F
WASKISH          N/A     72  57  60 W9        30.00F
BIG FORK       FAIR      75  54  46 SE5       30.00F
LONGVILLE      FAIR      72  55  56 SW7       30.03F
GRAND RAPIDS   FAIR      73  55  53 W7        30.04F
CRANE LAKE     FAIR      75  39  27 N3        30.00F
ORR            FAIR      79  39  24 W6        29.97F
COOK           FAIR      77  48  36 CALM      30.00F
WALKER         FAIR      68  55  62 E6        30.03S
$$
MNZ012-019>021-037-222100-
   Northeast Minnesota

CITY           SKY/WX    TMP DP  RH WIND       PRES   REMARKS
DULUTH         PTSUNNY   74  54  49 SW8       30.02F
ELY            FAIR      77  41  27 W3        30.00F
HIBBING        FAIR      74  53  48 CALM      30.00F
EVELETH        FAIR      75  54  46 SW8G20    30.02F
DULUTH HARBOR  PTSUNNY   64  57  77 NE5       30.01F
TWO HARBORS    FAIR      81  61  50 SE13      29.99F
SILVER BAY     PTSUNNY   75  52  43 S9        29.99F
GRAND MARAIS     N/A     53  40  61 SW15      30.00S
G MARAIS ARPRT FAIR      72  37  28 S8G16     30.02S
$$
MNZ029>031-032-039>041-046>048-054>057-064-222100-
   West Central Minnesota

CITY           SKY/WX    TMP DP  RH WIND       PRES   REMARKS
FERGUS FALLS   FAIR      75  55  50 E6        29.94F
WHEATON        MOSUNNY   79  52  38 CALM      29.98F
MORRIS         SUNNY     79  54  41 E10       29.98S
ALEXANDRIA     FAIR      76  56  49 VRB5      30.03F
ELBOW LAKE     FAIR      76  57  51 SW3       29.99F
WADENA         PTSUNNY   72  55  56 CALM      30.01F
GLENWOOD       FAIR      75  55  50 SE7       30.02F
APPLETON       MOSUNNY   79  54  41 S5        29.98F
BENSON         SUNNY     77  55  47 E6        30.00F
ORTONVILLE     SUNNY     79  52  38 CALM      29.97F
MADISON        MOSUNNY   81  59  47 SE9       29.97F
WILLMAR        FAIR      73  59  60 SE10      30.03F
$$
MNZ033>034-036-042>043-049>051-058-059-222100-
   Central Minnesota

CITY           SKY/WX    TMP DP  RH WIND       PRES   REMARKS
ST CLOUD       CLOUDY    71  56  58 VRB3      30.02F
SAUK CENTRE    MOCLDY    70  57  62 SE6       30.03F
PAYNESVILLE    CLOUDY    71  58  62 SE6       30.03F
PINE RIVER     CLOUDY    66  54  63 SW5       30.06F
BRAINERD       CLOUDY    72  52  49 CALM      30.02F
STAPLES        CLOUDY    73  52  46 S5        30.02F
LONG PRAIRIE   CLOUDY    70  54  56 E6        30.03F
LITTLE FALLS   PTSUNNY   70  54  56 SE3       30.03F
LITCHFIELD     FAIR      72  59  64 SE3       30.03F
BUFFALO        PTSUNNY   74  56  53 SE6       30.04F
MAPLE LAKE     CLOUDY    73  58  60 CALM      30.04F
HUTCHINSON     PTSUNNY   73  60  64 SE5       30.03F
$$
MNZ037-044-045-052-053-222100-
   East Central Minnesota

CITY           SKY/WX    TMP DP  RH WIND       PRES   REMARKS
PRINCETON      CLOUDY    75  57  53 CALM      30.03F
MORA           FAIR      70  54  56 CALM      30.05F
CAMBRIDGE      FAIR      73  57  56 SE6       30.03F
RUSH CITY      CLOUDY    71  56  58 SW3       30.04S
MOOSE LAKE     PTSUNNY   72  54  53 CALM      30.02F
HINCKLEY       CLOUDY    70  55  60 CALM      30.04S
CLOQUET        CLOUDY    73  50  43 SW8       30.03S
MCGREGOR       FAIR      72  54  53 S5        30.03F
$$
MNZ071>073-080-081-089-090-097-098-222100-
   Southwest Minnesota

CITY           SKY/WX    TMP DP  RH WIND       PRES   REMARKS
MONTEVIDEO     SUNNY     81  57  44 W5        29.99F
GRANITE FALLS  MOSUNNY   79  59  51 SE6       30.01F
CANBY          MOSUNNY   80  57  45 E7        29.99S
MARSHALL       MOSUNNY   77  60  55 E10       29.99F
REDWOOD FALLS  PTSUNNY   75  61  61 S12       30.00F
OLIVIA         MOSUNNY   73  59  60 S3        30.01S
PIPESTONE      MOSUNNY   79  57  47 S12       29.98F
WINDOM         MOSUNNY   79  52  38 S3        30.00F
WORTHINGTON    PTSUNNY   78  62  57 SE10      30.01F
JACKSON        MOSUNNY   77  57  50 SE8       30.02F
TRACY          MOSUNNY   78  62  58 SE10G16   29.99F
SLAYTON        MOSUNNY   78  57  49 SE15      30.01F
$$
MNZ065>067-074>077-082>085-091>093-222100-
   South Central Minnesota

CITY           SKY/WX    TMP DP  RH WIND       PRES   REMARKS
MANKATO        CLOUDY    76  57  51 SE13      30.02F
NEW ULM        MOSUNNY   73  55  53 SE5       30.00F
ST JAMES       MOSUNNY   77  55  47 SW3       30.02F
FAIRMONT       MOSUNNY   77  58  51 SE8       30.02F
GLENCOE        PTSUNNY   74  56  54 CALM      30.02F
FARIBAULT      PTSUNNY   73  55  53 CALM      30.04F
OWATONNA       FAIR      73  61  64 SE9       30.05S
WASECA         PTSUNNY   77  57  50 SE6       30.04F
ALBERT LEA     FAIR      72  55  56 CALM      30.05F
$$
MNZ078>079-086>088-094>096-222100-
   Southeast Minnesota

CITY           SKY/WX    TMP DP  RH WIND       PRES   REMARKS
ROCHESTER      FAIR      70  60  70 CALM      30.06F
RED WING       FAIR      72  54  53 S6        30.04S
STANTON        PTSUNNY   73  57  55 E7        30.03S
DODGE CENTER   FAIR      70  57  64 E5        30.06S
WINONA         CLOUDY    63  55  77 CALM      30.05S
AUSTIN         FAIR      72  55  56 CALM      30.05F
PRESTON        PTSUNNY   65  57  73 E3        30.07F
$$
ABBREVIATIONS USED IN REMARKS
   TC - TEMPERATURES IN CELSIUS
  WCI - WIND CHILL INDEX
   HX - HEAT INDEX
  VSB - VISIBILITY
$$




USA.gov is the U.S. government's official web portal to all federal, state and local government web resources and services.